User: anonymous   Login
Location: Unspecified
(0.0000°N, 0.0000°E)
Time: 00:19:59
(UTC+00:00)
Language:

Delta IV Demo - Orbit

View from above orbital plane
View from above orbital plane
View from above satellite
View from above satellite

Ground track
Ground track

The orbit data is extracted from the following two-line orbital elements,

1 28500U 04050A   16363.20331580 0.00000000  00000-0  00000-0 0    08
2 28500  15.6684  47.4351 2756738 159.3390 214.4213  1.41304391    02
Epoch (UTC): 28 December 2016 04:52:46
Eccentricity: 0.2756738
inclination: 15.6684°
perigee height: 17919 km
apogee height: 36414 km
right ascension of ascending node: 47.4351°
argument of perigee: 159.3390°
revolutions per day: 1.41304391
mean anomaly at epoch: 214.4213°
orbit number at epoch: 0

The dashed part of the orbit path shows where the satellite is in the earth's shadow,  

DLR